Location: Cosenza
(39.3000°N, 16.2500°E)
Time: 11:48:54
(UTC+02:00)

ISS - Visible Passes

Search period start: 11 May 2021 00:00
Search period end: 21 May 2021 00:00
Orbit: 418 x 421 km, 51.6° (Epoch: 11 May)

Date Brightness Start Highest point End Pass type
(mag) Time Alt. Az. Time Alt. Az. Time Alt. Az.
11 May -0.4 02:04:21 11° N 02:04:28 11° N 02:05:35 10° N visible
11 May -0.5 03:40:58 10° NNW 03:42:28 12° NNE 03:43:59 10° NE visible
11 May -2.1 05:16:52 10° NW 05:20:03 37° NNE 05:23:13 10° ESE visible
12 May -0.1 01:18:16 10° NNE 01:18:16 10° NNE 01:18:24 10° NNE visible
12 May -0.4 02:53:47 10° N 02:54:45 11° N 02:55:44 10° NNE visible
12 May -1.4 04:29:36 10° NNW 04:32:30 26° NNE 04:35:23 10° E visible
13 May -0.2 02:06:30 10° N 02:07:00 10° N 02:07:32 10° N visible
13 May -0.9 03:42:23 10° NNW 03:44:53 19° NNE 03:47:24 10° ENE visible
14 May -0.2 01:18:39 10° NNW 01:19:16 10° N 01:19:52 10° N visible
14 May -0.5 02:55:12 10° NNW 02:57:14 15° NNE 02:59:17 10° NE visible
14 May -3.2 04:31:15 10° NW 04:34:36 62° NE 04:37:56 10° ESE visible
14 May -3.2 21:13:54 10° SSW 21:16:59 35° SE 21:20:05 10° ENE visible
14 May -1.7 22:50:53 10° W 22:53:50 28° NNW 22:55:37 18° NNE visible
15 May -0.2 00:30:25 10° NNW 00:31:32 11° N 00:32:37 10° N visible
15 May -0.3 02:08:01 10° NNW 02:09:33 12° NNE 02:11:03 10° NE visible
15 May -2.2 03:43:55 10° NW 03:47:06 38° NNE 03:50:16 10° ESE visible
15 May -2.5 22:03:04 10° WSW 22:06:18 42° NNW 22:09:31 10° NE visible
15 May -0.4 23:42:10 10° NW 23:43:48 13° NNW 23:45:27 10° NNE visible
16 May -0.2 01:20:51 10° N 01:21:48 11° N 01:22:47 10° NNE visible
16 May -1.5 02:56:39 10° NNW 02:59:33 26° NNE 03:02:26 10° E visible
16 May -3.4 04:33:15 10° WNW 04:36:27 41° SW 04:39:38 10° SSE visible
16 May -3.5 21:15:28 10° WSW 21:18:49 71° NW 21:22:10 10° NE visible
16 May -0.6 22:53:58 10° WNW 22:56:07 16° NNW 22:58:16 10° NNE visible
17 May -0.1 00:33:33 10° N 00:34:04 10° N 00:34:34 10° N visible
17 May -1.0 02:09:25 10° NNW 02:11:56 19° NNE 02:14:27 10° ENE visible
17 May -3.9 03:45:42 10° NW 03:49:04 75° SW 03:52:26 10° SE visible
17 May -3.8 20:28:04 10° SW 20:31:23 65° SE 20:34:43 10° ENE visible
17 May -1.0 22:05:52 10° WNW 22:08:28 20° NNW 22:11:04 10° NNE visible
17 May -0.2 23:45:44 10° NNW 23:46:19 10° N 23:46:53 10° N visible
18 May -0.4 01:22:14 10° NNW 01:22:56 13° N 01:22:56 13° N visible
18 May -1.5 21:17:55 10° W 21:20:52 28° NNW 21:23:49 10° NNE visible
18 May -0.3 22:57:29 10° NNW 22:58:33 11° N 22:59:38 10° N visible
19 May -0.4 00:35:03 10° NNW 00:36:31 12° NNE 00:36:31 12° NNE visible
19 May -0.5 22:09:12 10° NW 22:10:49 13° NNW 22:12:27 10° NNE visible
19 May -0.4 23:47:53 10° N 23:48:50 11° N 23:49:48 10° NNE visible
20 May -0.7 21:21:00 10° WNW 21:23:07 16° NNW 21:25:16 10° NNE visible
20 May -0.3 23:00:36 10° N 23:01:05 10° N 23:01:35 10° N visible
